Weather Roundup
Issued by NWS

Home | Current Version | Previous Version | Graphics & Text | Print | Product List | Glossary Off
Versions: 1 2 3 4 5 6 7 8 9 10 11 12 13 14 15 16 17 18 19 20 21 22 23 24 25 26 27 28 29 30 31 32 33 34 35 36 37 38 39 40 41 42 43 44 45 46 47 48 49 50

000
NZUS93 KARX 011459
HRRWXR

CURRENT HOURLY OBSERVATIONS ACROSS
MUCH OF THE UPPER MISSISSIPPI VALLEY
NATIONAL WEATHER SERVICE LA CROSSE WI
1000 AM CDT WED JUL 01 2015


...SOUTHEAST MINNESOTA...


CITY           SKY/WX    TMP DP  RH WIND       PRES   REMARKS
ROCHESTER      PTSUNNY   60  52  74 SE6       30.02R
ROCHESTER/MAYO FAIR      60  51  72 E5        30.02R
WINONA         MOSUNNY   61  50  67 SE6       30.02R
AUSTIN         PTSUNNY   63  54  72 E3        30.00R
ALBERT LEA     PTSUNNY   63  55  77 E5        30.00R
DODGE CENTER   CLOUDY    61  52  72 SE6       30.01R
PRESTON        MOSUNNY   59  50  72 SE6       30.01S
OWATONNA       CLOUDY    61  52  72 E7        30.01R
FARIBAULT      CLOUDY    61  52  72 E5        30.01S
$$

...ELSEWHERE IN MINNESOTA...


CITY           SKY/WX    TMP DP  RH WIND       PRES   REMARKS
MINNEAPOLIS    CLOUDY    60  49  66 SE6       30.01S
INTNL FALLS    SUNNY     67  57  70 CALM      29.98S
DULUTH         MOSUNNY   63  51  65 S7        30.02R
RED WING       CLOUDY    61  50  67 E6        30.00S
REDWOOD FALLS  CLOUDY    61  56  83 E7        29.98F
MANKATO        CLOUDY    61  54  77 E3        30.00R
WORTHINGTON    CLOUDY    61  55  82 E8        29.98R
FAIRMONT       CLOUDY    63  54  72 E6        29.98S
$$

...SOUTHWEST WISCONSIN...


CITY           SKY/WX    TMP DP  RH WIND       PRES   REMARKS
LA CROSSE      MOSUNNY   62  49  62 VRB5      30.00S
PRAIRIE DU CHI SUNNY     62  50  66 E3        29.99S
BOSCOBEL       SUNNY     63  50  62 NE5       30.00S
LONE ROCK      NOT AVBL
PLATTEVILLE    MOSUNNY   62  57  84 NE8       29.98F
FORT MC COY    SUNNY     62  44  52 NE7       30.02S
VIROQUA        FAIR      60  49  67 E7        30.00F
WIS DELLS      NOT AVBL
$$

...ELSEWHERE IN WISCONSIN...


CITY           SKY/WX    TMP DP  RH WIND       PRES   REMARKS
MILWAUKEE      MOSUNNY   61  49  64 NE10      29.97F
MADISON        MOSUNNY   63  47  55 N6        29.98F
GREEN BAY      MOSUNNY   59  48  67 NE6       29.99S
EAU CLAIRE     PTSUNNY   62  47  57 NE8       30.01F
BLACK RVR FLS  FAIR      61  45  56 E6        30.01S
MEDFORD        MOSUNNY   57  46  65 NE7       30.03S
WAUSAU         MOSUNNY   60  43  53 N7        30.00F
WIS RAPIDS     MOSUNNY   61  44  53 N8        30.01F
MARSHFIELD     PTSUNNY   60  44  55 NE7       30.02S
RICE LAKE      PTSUNNY   59  44  58 SE6       30.05S
$$

...NORTHEAST IOWA...


CITY           SKY/WX    TMP DP  RH WIND       PRES   REMARKS
DECORAH          N/A    N/A N/A N/A MISG        N/A
MASON CITY     SUNNY     65  57  75 E8        30.00R
CHARLES CITY   MOSUNNY   63  59  88 E7        29.99S
OELWEIN          N/A     63  59  88 E8        29.99S
$$

...ELSEWHERE IN IOWA...


CITY           SKY/WX    TMP DP  RH WIND       PRES   REMARKS
DES MOINES     CLOUDY    70  61  73 E13       29.89F
IOWA CITY      SUNNY     68  58  70 NE10      29.95R
FORT DODGE     CLOUDY    68  57  68 E7        29.97R
$$

...NORTHERN ILLINOIS...


CITY           SKY/WX    TMP DP  RH WIND       PRES   REMARKS
CHICAGO-OHARE  PTSUNNY   63  53  70 NE6       29.97S
CHICAGO-MIDWAY CLOUDY    63  54  72 NE5       29.97S
MOLINE         CLOUDY    66  60  81 E8        29.95R HAZE
ROCKFORD       CLOUDY    64  55  72 VRB3      29.99S
PEORIA         PTSUNNY   71  63  75 NE8       29.93R
$$

NOTE: "FAIR" INDICATES FEW OR NO CLOUDS BELOW 12,000 FEET WITH NO
SIGNIFICANT WEATHER AND/OR OBSTRUCTIONS TO VISIBILITY. WIND
SPEEDS ARE IN MILES-PER-HOUR.



USA.gov is the U.S. government's official web portal to all federal, state and local government web resources and services.